FW1865 Weather Reports


time (UTC)temp
C
wind
direction
speed
KPH
gust
KPH
rain 1hr
cm
rain 24hr
cm
rain mn
cm
humidity
%
barometer
mb
20210122060816 -11 338 14.5 25.7 0.00 0.00 0.00 64 1040.8
20210122060318 -11 318 9.7 24.1 0.00 0.00 0.00 65 1040.7
20210122055820 -11 304 11.3 22.5 0.00 0.00 0.00 66 1040.7
20210122055323 -11 314 8.0 19.3 0.00 0.00 0.00 65 1040.6
20210122054826 -11 310 8.0 19.3 0.00 0.00 0.00 65 1040.6
20210122054328 -11 303 11.3 27.4 0.00 0.00 0.00 65 1040.4
20210122053828 -11 325 8.0 27.4 0.00 0.00 0.00 65 1040.3
20210122053329 -11 299 11.3 25.7 0.00 0.00 0.00 64 1040.3
20210122052831 -11 296 12.9 25.7 0.00 0.00 0.00 64 1040.2
20210122052336 -11 360 9.7 30.6 0.00 0.00 0.00 64 1040.3
20210122051833 -11 319 11.3 30.6 0.00 0.00 0.00 63 1040.2
20210122051315 -11 312 16.1 30.6 0.00 0.00 0.00 62 1040.1
20210122050816 -11 332 11.3 29.0 0.00 0.00 0.00 63 1040.0
20210122050323 -11 346 12.9 25.7 0.00 0.00 0.00 62 1040.0
20210122045819 -10 336 14.5 37.0 0.00 0.00 0.00 62 1040.0
20210122045320 -10 339 19.3 37.0 0.00 0.00 0.00 61 1039.9
20210122044824 -10 341 14.5 27.4 0.00 0.00 0.00 61 1039.8
20210122044325 -10 332 14.5 32.2 0.00 0.00 0.00 62 1039.6
20210122043826 -10 327 9.7 32.2 0.00 0.00 0.00 63 1039.5
20210122043320 -10 337 12.9 30.6 0.00 0.00 0.00 62 1039.4
20210122042823 -10 330 14.5 30.6 0.00 0.00 0.00 62 1039.3
20210122042323 -10 326 6.4 17.7 0.00 0.00 0.00 64 1039.2
20210122041823 -10 337 9.7 19.3 0.00 0.00 0.00 63 1039.3
20210122041324 -10 22 9.7 20.9 0.00 0.00 0.00 63 1039.2
20210122040824 -10 343 8.0 20.9 0.00 0.00 0.00 63 1039.0
20210122040326 -10 327 11.3 27.4 0.00 0.00 0.00 63 1038.7
20210122035830 -9 339 11.3 27.4 0.00 0.00 0.00 63 1038.7
20210122035330 -9 318 12.9 35.4 0.00 0.00 0.00 62 1038.6
20210122034832 -9 360 19.3 35.4 0.00 0.00 0.00 62 1038.5
20210122034313 -9 330 12.9 27.4 0.00 0.00 0.00 63 1038.3
20210122033815 -9 1 8.0 22.5 0.00 0.00 0.00 64 1038.2
20210122033317 -9 317 12.9 22.5 0.00 0.00 0.00 63 1038.0
20210122032818 -9 334 9.7 20.9 0.00 0.00 0.00 64 1038.1
20210122032321 -8 322 12.9 20.9 0.00 0.00 0.00 63 1038.0
20210122031820 -8 44 9.7 17.7 0.00 0.00 0.00 64 1038.0
20210122031327 -8 339 3.2 16.1 0.00 0.00 0.00 65 1037.9
20210122030830 -8 331 8.0 16.1 0.00 0.00 0.00 64 1037.8
20210122030329 -8 341 6.4 16.1 0.00 0.00 0.00 64 1037.7
20210122025830 -8 323 3.2 19.3 0.00 0.00 0.00 65 1037.6
20210122025330 -8 322 9.7 24.1 0.00 0.00 0.00 63 1037.5
20210122024831 -8 340 9.7 24.1 0.00 0.00 0.00 63 1037.5
20210122024314 -8 343 12.9 24.1 0.00 0.00 0.00 62 1037.4
20210122023815 -8 22 6.4 16.1 0.00 0.00 0.00 64 1037.4
20210122023315 -8 351 6.4 20.9 0.00 0.00 0.00 64 1037.2
20210122022819 -8 315 9.7 20.9 0.00 0.00 0.00 63 1037.1
20210122022327 -8 330 11.3 20.9 0.00 0.00 0.00 62 1036.9
20210122021831 -7 339 9.7 20.9 0.00 0.00 0.00 63 1036.8
20210122021335 -7 315 9.7 22.5 0.00 0.00 0.00 61 1036.8
20210122020812 -7 336 9.7 22.5 0.00 0.00 0.00 63 1036.7
20210122020326 -7 345 4.8 22.5 0.00 0.00 0.00 63 1036.5
20210122015818 -7 347 8.0 22.5 0.00 0.00 0.00 62 1036.5
20210122015322 -7 325 11.3 25.7 0.00 0.00 0.00 62 1036.3
20210122014821 -7 354 12.9 25.7 0.00 0.00 0.00 62 1036.3
20210122014324 -6 332 12.9 25.7 0.00 0.00 0.00 62 1036.2
20210122013828 -6 334 9.7 27.4 0.00 0.00 0.00 62 1036.0
20210122013326 -6 304 16.1 29.0 0.00 0.00 0.00 61 1035.8
20210122012829 -6 314 11.3 29.0 0.00 0.00 0.00 61 1035.9
20210122012329 -6 352 11.3 25.7 0.00 0.00 0.00 63 1035.7
20210122011830 -6 3 11.3 20.9 0.00 0.00 0.00 63 1035.5
20210122011313 -5 316 12.9 29.0 0.00 0.00 0.00 62 1035.4
20210122010817 -5 353 14.5 29.0 0.00 0.00 0.00 62 1035.3
20210122010315 -5 324 12.9 29.0 0.00 0.00 0.00 63 1035.0
20210122005817 -5 330 17.7 29.0 0.00 0.00 0.00 62 1034.9
20210122005322 -5 67 11.3 30.6 0.00 0.00 0.00 63 1034.8
20210122004822 -5 341 11.3 25.7 0.00 0.00 0.00 63 1034.6
20210122004324 -5 281 12.9 25.7 0.00 0.00 0.00 62 1034.5
20210122003825 -5 285 12.9 29.0 0.00 0.00 0.00 62 1034.4
20210122003335 -5 292 14.5 29.0 0.00 0.00 0.00 62 1034.3
20210122002826 -4 300 14.5 29.0 0.00 0.00 0.00 61 1034.0
20210122002325 -4 289 16.1 29.0 0.00 0.00 0.00 61 1033.7
20210122001831 -4 315 14.5 29.0 0.00 0.00 0.00 60 1033.7
20210122001332 -3 301 16.1 29.0 0.00 0.00 0.00 60 1033.7
20210122000832 -3 307 12.9 29.0 0.00 0.00 0.00 60 1033.4
20210122000335 -3 296 16.1 32.2 0.00 0.00 0.00 59 1033.3
20210121235814 -3 303 16.1 32.2 0.00 0.00 0.00 60 1033.3
20210121235318 -3 278 16.1 30.6 0.00 0.00 0.00 60 1033.1
20210121234819 -3 307 11.3 20.9 0.00 0.00 0.00 60 1033.0
20210121234327 -3 308 12.9 24.1 0.00 0.00 0.00 60 1032.9
20210121233824 -2 20 14.5 24.1 0.00 0.00 0.00 60 1032.8
20210121233328 -2 325 12.9 25.7 0.00 0.00 0.00 61 1032.8
20210121232830 -2 323 12.9 27.4 0.00 0.00 0.00 61 1032.5
20210121232321 -2 307 16.1 27.4 0.00 0.00 0.00 60 1032.3
20210121231818 -2 303 16.1 30.6 0.00 0.00 0.00 60 1032.3
20210121231319 -2 305 16.1 30.6 0.00 0.00 0.00 60 1032.1
20210121230823 -2 301 12.9 33.8 0.00 0.00 0.00 60 1031.9
20210121230317 -1 318 19.3 35.4 0.00 0.00 0.00 60 1031.9
20210121225816 -1 323 22.5 35.4 0.00 0.03 0.00 58 1031.8
20210121225319 -1 292 20.9 35.4 0.00 0.03 0.00 59 1031.6
20210121224819 -1 322 12.9 29.0 0.00 0.03 0.00 60 1031.6
20210121224321 -1 313 14.5 27.4 0.00 0.03 0.00 60 1031.5
20210121223824 0 309 17.7 33.8 0.00 0.03 0.00 60 1031.4
20210121223326 0 308 19.3 33.8 0.00 0.03 0.00 60 1031.3
20210121222814 0 294 16.1 27.4 0.00 0.03 0.00 65 1031.1
20210121222314 0 294 17.7 30.6 0.00 0.03 0.00 64 1030.9
20210121221816 0 292 20.9 33.8 0.00 0.03 0.00 64 1030.8
20210121221320 0 293 20.9 43.5 0.00 0.03 0.00 63 1030.8
20210121220821 0 289 22.5 43.5 0.00 0.03 0.00 63 1030.7
20210121220324 1 299 24.1 37.0 0.00 0.03 0.00 63 1030.4
20210121215831 1 313 19.3 35.4 0.00 0.03 0.00 64 1030.4
20210121215329 1 270 17.7 30.6 0.00 0.03 0.00 63 1030.4
20210121214834 1 327 19.3 29.0 0.00 0.03 0.00 64 1030.2
20210121214315 1 300 12.9 29.0 0.00 0.03 0.00 65 1030.1
20210121213820 1 315 19.3 35.4 0.00 0.03 0.00 65 1030.1
20210121212829 1 298 14.5 29.0 0.00 0.03 0.00 65 1029.8
20210121212330 1 320 16.1 37.0 0.00 0.03 0.00 67 1029.7
20210121211833 1 339 24.1 37.0 0.00 0.03 0.00 66 1029.7
20210121211317 1 289 20.9 37.0 0.00 0.03 0.00 66 1029.6
20210121210822 1 300 17.7 32.2 0.00 0.03 0.00 68 1029.5
20210121210325 1 303 14.5 32.2 0.00 0.03 0.00 69 1029.5
20210121205821 1 292 17.7 37.0 0.00 0.03 0.00 69 1029.3
20210121205326 1 292 24.1 40.2 0.00 0.03 0.00 68 1029.4
20210121204826 1 286 20.9 40.2 0.00 0.03 0.00 67 1029.3
20210121204324 1 311 19.3 30.6 0.00 0.03 0.00 69 1029.2
20210121203828 1 311 20.9 32.2 0.00 0.03 0.00 67 1029.1
20210121203327 1 284 19.3 33.8 0.00 0.03 0.00 68 1029.2
20210121202832 1 321 17.7 33.8 0.00 0.03 0.00 66 1029.1
20210121202314 1 341 19.3 33.8 0.00 0.03 0.00 65 1029.2
20210121201819 1 294 20.9 30.6 0.00 0.03 0.00 66 1029.1
20210121201321 1 309 19.3 35.4 0.00 0.03 0.00 65 1028.9
20210121200828 2 318 17.7 35.4 0.00 0.03 0.00 65 1028.9
20210121200331 2 303 17.7 33.8 0.00 0.03 0.00 65 1028.9
20210121195813 2 334 16.1 27.4 0.00 0.03 0.00 66 1029.0
20210121195317 2 303 17.7 27.4 0.00 0.03 0.00 66 1029.0
20210121194817 2 293 11.3 27.4 0.00 0.03 0.00 67 1029.0
20210121194325 2 294 14.5 25.7 0.00 0.03 0.00 68 1028.8
20210121193832 1 318 12.9 22.5 0.00 0.03 0.00 70 1028.9
20210121193317 1 292 12.9 27.4 0.00 0.03 0.00 72 1028.9
20210121192820 1 320 16.1 27.4 0.00 0.03 0.00 71 1029.0
20210121192321 1 340 16.1 25.7 0.00 0.03 0.00 71 1028.9
20210121191824 1 302 12.9 22.5 0.00 0.03 0.00 72 1028.9
20210121191329 1 302 14.5 24.1 0.00 0.03 0.00 72 1029.0
20210121190833 1 277 17.7 25.7 0.00 0.03 0.00 70 1028.8
20210121190317 1 306 14.5 25.7 0.00 0.03 0.00 71 1028.8
20210121185822 1 341 11.3 25.7 0.00 0.03 0.00 71 1028.8
20210121185326 1 318 16.1 33.8 0.00 0.03 0.00 71 1028.7
20210121184830 1 260 16.1 33.8 0.00 0.03 0.00 69 1028.8
20210121184318 1 289 17.7 27.4 0.00 0.03 0.00 70 1028.7
20210121183817 1 274 14.5 24.1 0.00 0.03 0.00 71 1028.8
20210121183322 1 292 12.9 25.7 0.00 0.03 0.00 70 1028.8
20210121182823 1 279 12.9 25.7 0.00 0.03 0.00 70 1028.7
20210121182322 1 329 16.1 30.6 0.00 0.03 0.00 70 1028.8
20210121181823 1 323 16.1 29.0 0.00 0.03 0.00 69 1028.7
20210121181325 1 297 14.5 24.1 0.00 0.03 0.00 70 1028.9
20210121180825 1 291 12.9 24.1 0.00 0.03 0.00 70 1028.7
20210121180326 1 271 11.3 25.7 0.00 0.03 0.00 69 1028.6
20210121175829 1 337 14.5 22.5 0.00 0.03 0.00 69 1028.4
20210121175328 1 263 14.5 22.5 0.00 0.03 0.00 69 1028.6
20210121174830 1 290 11.3 25.7 0.00 0.03 0.00 69 1028.5
20210121174327 1 293 12.9 25.7 0.00 0.03 0.00 71 1028.7
20210121173826 1 312 16.1 30.6 0.00 0.03 0.00 70 1028.7
20210121173321 1 310 14.5 25.7 0.00 0.03 0.00 71 1028.9
20210121172831 1 23 16.1 27.4 0.00 0.03 0.00 70 1028.8
20210121172316 1 296 12.9 24.1 0.00 0.03 0.00 70 1029.0
20210121171814 1 302 12.9 25.7 0.00 0.03 0.00 71 1029.0
20210121171315 1 300 12.9 25.7 0.00 0.03 0.00 71 1029.0
20210121170815 1 301 14.5 22.5 0.00 0.03 0.00 70 1029.1
20210121170316 1 289 9.7 25.7 0.00 0.03 0.00 72 1029.1
20210121165818 1 299 14.5 25.7 0.00 0.03 0.00 71 1029.0
20210121165327 1 302 16.1 27.4 0.00 0.03 0.00 71 1029.1
20210121164824 0 310 17.7 25.7 0.00 0.03 0.00 71 1029.0
20210121164318 0 209 12.9 24.1 0.00 0.03 0.00 71 1029.1
20210121163820 0 290 14.5 25.7 0.00 0.03 0.00 71 1028.9
20210121163325 0 292 16.1 33.8 0.00 0.03 0.00 71 1029.0
20210121162822 0 324 17.7 27.4 0.00 0.03 0.00 71 1028.9
20210121162317 0 314 14.5 27.4 0.00 0.03 0.00 71 1028.8
20210121161817 0 255 16.1 24.1 0.00 0.03 0.00 70 1028.8
20210121161320 0 322 12.9 24.1 0.00 0.03 0.00 71 1028.8
20210121160823 0 282 14.5 29.0 0.00 0.03 0.00 71 1028.7
20210121160324 0 270 14.5 29.0 0.00 0.03 0.00 70 1028.7
20210121155829 0 240 17.7 27.4 0.00 0.03 0.00 71 1028.7
20210121155329 0 344 12.9 32.2 0.00 0.03 0.00 71 1028.6
20210121154827 0 320 16.1 32.2 0.00 0.03 0.00 70 1028.7
20210121154329 0 315 16.1 25.7 0.00 0.03 0.00 69 1028.5
20210121153828 0 242 17.7 30.6 0.00 0.03 0.00 70 1028.4
20210121153334 0 303 16.1 30.6 0.00 0.03 0.00 70 1028.3
20210121152834 0 292 16.1 33.8 0.00 0.03 0.00 70 1028.4
20210121152327 0 278 20.9 35.4 0.00 0.03 0.00 70 1028.5
20210121151828 0 273 17.7 35.4 0.00 0.03 0.00 70 1028.4
20210121151329 0 272 14.5 25.7 0.00 0.03 0.00 70 1028.3
20210121150829 0 275 14.5 24.1 0.00 0.03 0.00 71 1028.3
20210121150330 0 294 14.5 27.4 0.00 0.03 0.00 70 1028.1
20210121145824 0 303 14.5 27.4 0.00 0.03 0.00 69 1028.0
20210121145323 0 247 14.5 24.1 0.00 0.03 0.00 70 1027.9
20210121144822 0 296 12.9 30.6 0.00 0.03 0.00 69 1027.7
20210121144321 0 206 17.7 30.6 0.00 0.03 0.00 70 1027.6
20210121143820 0 260 14.5 29.0 0.00 0.03 0.00 69 1027.6
20210121143320 0 290 16.1 38.6 0.00 0.03 0.00 70 1027.6
20210121142821 0 274 19.3 38.6 0.00 0.03 0.00 71 1027.5
20210121142320 0 298 14.5 25.7 0.00 0.03 0.00 70 1027.4
20210121141822 0 295 17.7 25.7 0.00 0.03 0.00 71 1027.4
20210121141320 0 283 14.5 24.1 0.00 0.03 0.00 70 1027.4
20210121140821 0 294 16.1 27.4 0.00 0.03 0.00 70 1027.4
20210121140321 0 271 9.7 27.4 0.00 0.03 0.00 70 1027.3
20210121135822 0 279 11.3 27.4 0.00 0.03 0.00 70 1027.2
20210121135323 0 270 12.9 22.5 0.00 0.03 0.00 70 1027.2
20210121134824 0 260 12.9 22.5 0.00 0.03 0.00 69 1027.2
20210121134325 0 248 14.5 30.6 0.00 0.03 0.00 69 1027.2
20210121133833 0 275 16.1 30.6 0.00 0.03 0.00 69 1027.1
20210121133329 0 270 14.5 24.1 0.00 0.03 0.00 69 1027.1
20210121132829 0 260 12.9 24.1 0.00 0.03 0.00 69 1027.0
20210121132332 0 277 12.9 25.7 0.00 0.03 0.00 69 1027.1
20210121131814 0 272 16.1 27.4 0.00 0.03 0.00 69 1026.9
20210121131315 0 258 17.7 27.4 0.00 0.03 0.00 69 1027.0
20210121130814 0 238 19.3 37.0 0.00 0.03 0.00 69 1027.0
20210121130314 0 280 19.3 37.0 0.00 0.03 0.00 68 1027.0
20210121125816 0 270 16.1 25.7 0.00 0.03 0.00 68 1026.9
20210121125320 0 282 17.7 24.1 0.00 0.03 0.00 68 1027.0
20210121124819 0 261 16.1 25.7 0.00 0.03 0.00 67 1026.9
20210121124321 0 283 16.1 25.7 0.00 0.03 0.00 67 1026.9
20210121123823 0 301 17.7 24.1 0.00 0.03 0.00 68 1026.9
20210121123324 0 288 16.1 25.7 0.00 0.03 0.00 68 1027.0
20210121122828 0 252 16.1 27.4 0.00 0.03 0.00 68 1026.9
20210121122325 0 258 17.7 29.0 0.00 0.03 0.00 68 1027.0
20210121121825 0 256 16.1 29.0 0.00 0.03 0.00 68 1026.9
20210121121327 0 259 19.3 29.0 0.00 0.03 0.00 68 1026.9
20210121120854 0 286 16.1 24.1 0.00 0.03 0.00 67 1027.0
20210121120320 0 288 11.3 20.9 0.00 0.03 0.00 67 1027.0
20210121115828 0 292 12.9 22.5 0.00 0.03 0.00 68 1027.1
20210121115320 0 279 12.9 24.1 0.00 0.03 0.00 68 1027.1
20210121114821 0 280 12.9 24.1 0.00 0.03 0.00 68 1027.0
20210121114322 0 254 16.1 29.0 0.00 0.03 0.00 68 1026.9
20210121113822 0 275 16.1 30.6 0.00 0.03 0.00 68 1026.9
20210121113324 0 291 19.3 32.2 0.00 0.03 0.00 68 1026.8
20210121112824 0 242 17.7 32.2 0.00 0.03 0.00 68 1026.9
20210121112324 0 263 20.9 30.6 0.00 0.03 0.00 67 1026.9
20210121111824 0 293 19.3 27.4 0.00 0.03 0.00 67 1026.8
20210121111327 0 279 16.1 32.2 0.00 0.03 0.00 67 1026.9
20210121110828 0 254 20.9 32.2 0.00 0.03 0.00 66 1026.9
20210121110331 0 281 19.3 25.7 0.00 0.03 0.00 66 1026.8
20210121105828 0 239 16.1 24.1 0.00 0.03 0.00 66 1026.7
20210121105329 1 278 14.5 24.1 0.00 0.03 0.00 66 1026.8
20210121104816 0 273 11.3 17.7 0.00 0.03 0.00 66 1026.8
20210121104317 0 294 9.7 19.3 0.00 0.03 0.00 66 1026.8
20210121103820 0 282 11.3 19.3 0.00 0.03 0.00 66 1026.9
20210121103323 0 267 11.3 24.1 0.00 0.03 0.00 67 1027.0
20210121102822 1 291 14.5 24.1 0.00 0.03 0.00 66 1026.9
20210121102326 1 283 14.5 22.5 0.00 0.03 0.00 66 1027.0
20210121101827 1 276 11.3 32.2 0.00 0.03 0.00 66 1026.9
20210121101319 1 292 16.1 32.2 0.00 0.03 0.00 66 1027.0
20210121100818 1 287 12.9 27.4 0.00 0.03 0.00 66 1027.0
20210121100318 1 289 17.7 30.6 0.00 0.03 0.00 66 1027.1
20210121095821 1 271 20.9 30.6 0.00 0.03 0.00 66 1027.0
20210121095324 1 279 14.5 27.4 0.00 0.03 0.00 67 1027.1
20210121094828 1 277 16.1 32.2 0.00 0.03 0.00 67 1027.1
20210121094312 1 295 17.7 32.2 0.00 0.03 0.00 67 1027.0
20210121093818 1 268 9.7 24.1 0.00 0.03 0.00 67 1027.1
20210121093321 1 287 14.5 24.1 0.00 0.03 0.00 67 1027.1
20210121092824 1 282 9.7 22.5 0.00 0.03 0.00 67 1027.2
20210121092326 1 289 11.3 24.1 0.00 0.03 0.00 67 1027.2
20210121091829 1 296 12.9 24.1 0.00 0.03 0.00 67 1027.4
20210121091314 1 315 12.9 22.5 0.00 0.03 0.00 67 1027.3
20210121090815 1 285 11.3 22.5 0.00 0.03 0.00 67 1027.2
20210121090319 1 277 12.9 24.1 0.00 0.03 0.00 67 1027.1
20210121085831 1 281 12.9 24.1 0.00 0.03 0.00 67 1027.1
20210121085326 1 261 9.7 20.9 0.00 0.03 0.00 67 1027.2
20210121084830 1 285 8.0 17.7 0.00 0.03 0.00 67 1027.2
20210121084327 1 273 9.7 19.3 0.00 0.03 0.00 67 1027.2
20210121083851 1 284 12.9 24.1 0.00 0.03 0.00 67 1027.1
20210121083312 1 282 14.5 30.6 0.00 0.03 0.00 68 1027.1
20210121082814 1 247 20.9 30.6 0.00 0.03 0.00 67 1027.0
20210121082332 1 263 17.7 27.4 0.00 0.03 0.00 67 1027.1
20210121081812 1 301 14.5 35.4 0.00 0.03 0.00 66 1026.9
20210121081324 1 332 14.5 35.4 0.00 0.03 0.00 67 1026.9
20210121080818 1 256 14.5 27.4 0.00 0.03 0.00 66 1026.8
20210121080320 1 275 12.9 27.4 0.00 0.03 0.00 67 1026.8
20210121075824 1 282 12.9 32.2 0.00 0.03 0.00 67 1026.8
20210121075325 1 295 16.1 27.4 0.00 0.03 0.00 67 1026.7
20210121074813 1 274 16.1 27.4 0.00 0.03 0.00 67 1026.7
20210121074319 1 273 16.1 29.0 0.00 0.03 0.00 67 1026.6
20210121073816 1 268 17.7 29.0 0.00 0.03 0.00 67 1026.6
20210121073319 1 275 14.5 20.9 0.00 0.03 0.00 68 1026.7
20210121072818 1 281 11.3 22.5 0.00 0.03 0.00 67 1026.7
20210121072316 1 251 11.3 32.2 0.00 0.03 0.00 68 1026.7
20210121071817 1 283 11.3 32.2 0.00 0.03 0.00 67 1026.6
20210121071315 1 299 11.3 22.5 0.00 0.03 0.00 67 1026.7
20210121070814 1 280 14.5 24.1 0.00 0.03 0.00 67 1026.7
20210121070313 1 287 12.9 25.7 0.00 0.03 0.00 68 1026.7
20210121065812 1 264 12.9 19.3 0.00 0.03 0.00 68 1026.5
20210121065326 1 256 11.3 19.3 0.00 0.03 0.00 68 1026.7
20210121064831 1 297 12.9 22.5 0.00 0.03 0.00 68 1026.6
20210121064325 1 280 14.5 24.1 0.00 0.03 0.00 68 1026.6
20210121063825 1 299 16.1 24.1 0.00 0.03 0.00 68 1026.6
20210121063324 1 318 9.7 19.3 0.00 0.03 0.00 68 1026.6
20210121062828 1 280 11.3 19.3 0.00 0.03 0.00 68 1026.5
20210121062320 1 268 12.9 20.9 0.00 0.03 0.00 68 1026.6
20210121061823 1 280 8.0 20.9 0.00 0.03 0.00 68 1026.5
20210121061320 1 275 9.7 20.9 0.00 0.03 0.00 68 1026.5